| time (UTC) | temp F | wind direction | speed MPH | gust MPH | rain 1hr in | rain 24hr in | rain mn in | humidity % | barometer mb |
| 20260507003620 | 63 | 11 | 10.0 | 14.0 | 0.00 | 0.00 | 0.17 | 73 | 1015.7 |
| 20260507003121 | 63 | 10 | 4.0 | 14.0 | 0.00 | 0.00 | 0.17 | 73 | 1015.5 |
| 20260507002621 | 63 | 10 | 8.0 | 12.0 | 0.00 | 0.00 | 0.17 | 73 | 1015.5 |
| 20260507002122 | 64 | 10 | 4.0 | 12.0 | 0.00 | 0.00 | 0.17 | 73 | 1015.6 |
| 20260507001620 | 64 | 9 | 7.0 | 13.0 | 0.00 | 0.00 | 0.17 | 72 | 1015.5 |
| 20260507001120 | 64 | 10 | 8.0 | 14.0 | 0.00 | 0.00 | 0.17 | 73 | 1015.5 |
| 20260507000620 | 64 | 10 | 8.0 | 14.0 | 0.00 | 0.00 | 0.17 | 73 | 1015.3 |
| 20260507000120 | 64 | 9 | 14.0 | 15.0 | 0.00 | 0.00 | 0.17 | 72 | 1015.2 |
| 20260506235618 | 65 | 11 | 3.0 | 15.0 | 0.00 | 0.00 | 0.17 | 72 | 1015.2 |
| 20260506235120 | 65 | 9 | 5.0 | 14.0 | 0.00 | 0.00 | 0.17 | 71 | 1015.2 |
| 20260506234619 | 65 | 9 | 5.0 | 13.0 | 0.00 | 0.00 | 0.17 | 71 | 1015.0 |
| 20260506234118 | 65 | 31 | 6.0 | 12.0 | 0.00 | 0.00 | 0.17 | 72 | 1015.0 |
| 20260506233618 | 65 | 5 | 9.0 | 12.0 | 0.00 | 0.00 | 0.17 | 71 | 1015.0 |
| 20260506233119 | 65 | 12 | 11.0 | 11.0 | 0.00 | 0.00 | 0.17 | 71 | 1014.9 |
| 20260506232620 | 65 | 10 | 3.0 | 14.0 | 0.00 | 0.00 | 0.17 | 71 | 1014.9 |
| 20260506232119 | 65 | 30 | 2.0 | 15.0 | 0.00 | 0.00 | 0.17 | 71 | 1014.8 |
| 20260506231618 | 65 | 9 | 4.0 | 15.0 | 0.00 | 0.00 | 0.17 | 70 | 1014.7 |
| 20260506231118 | 66 | 9 | 8.0 | 15.0 | 0.00 | 0.00 | 0.17 | 70 | 1014.6 |
| 20260506230616 | 66 | 11 | 4.0 | 12.0 | 0.00 | 0.00 | 0.17 | 70 | 1014.6 |
| 20260506230120 | 66 | 15 | 11.0 | 12.0 | 0.00 | 0.00 | 0.17 | 69 | 1014.6 |
| 20260506225617 | 66 | 360 | 3.0 | 12.0 | 0.00 | 0.00 | 0.17 | 70 | 1014.8 |
| 20260506225118 | 65 | 12 | 7.0 | 10.0 | 0.00 | 0.00 | 0.17 | 71 | 1014.9 |
| 20260506224618 | 65 | 14 | 3.0 | 12.0 | 0.00 | 0.00 | 0.17 | 70 | 1014.9 |
| 20260506224118 | 65 | 9 | 7.0 | 12.0 | 0.00 | 0.00 | 0.17 | 71 | 1014.7 |
| 20260506223616 | 66 | 15 | 5.0 | 11.0 | 0.00 | 0.00 | 0.17 | 70 | 1014.6 |
| 20260506223120 | 66 | 22 | 5.0 | 13.0 | 0.00 | 0.00 | 0.17 | 71 | 1014.6 |
| 20260506222617 | 65 | 12 | 5.0 | 13.0 | 0.00 | 0.00 | 0.17 | 72 | 1014.5 |
| 20260506222115 | 65 | 10 | 8.0 | 13.0 | 0.00 | 0.00 | 0.17 | 71 | 1014.4 |
| 20260506221615 | 64 | 16 | 5.0 | 15.0 | 0.00 | 0.00 | 0.17 | 73 | 1014.6 |
| 20260506221116 | 64 | 11 | 5.0 | 15.0 | 0.00 | 0.00 | 0.17 | 72 | 1014.4 |
| 20260506220617 | 64 | 19 | 5.0 | 11.0 | 0.00 | 0.00 | 0.17 | 72 | 1014.5 |
| 20260506220115 | 64 | 9 | 5.0 | 11.0 | 0.00 | 0.00 | 0.17 | 71 | 1014.5 |
| 20260506215617 | 64 | 21 | 8.0 | 9.0 | 0.00 | 0.00 | 0.17 | 73 | 1014.4 |
| 20260506215115 | 63 | 14 | 3.0 | 10.0 | 0.00 | 0.00 | 0.17 | 73 | 1014.9 |
| 20260506214614 | 63 | 12 | 4.0 | 10.0 | 0.00 | 0.00 | 0.17 | 73 | 1015.0 |
| 20260506214114 | 63 | 5 | 4.0 | 10.0 | 0.00 | 0.00 | 0.17 | 74 | 1015.0 |
| 20260506213615 | 62 | 11 | 3.0 | 11.0 | 0.00 | 0.00 | 0.17 | 75 | 1014.9 |
| 20260506213114 | 62 | 13 | 7.0 | 12.0 | 0.00 | 0.00 | 0.17 | 74 | 1014.9 |
| 20260506212614 | 61 | 13 | 10.0 | 12.0 | 0.00 | 0.00 | 0.17 | 74 | 1014.7 |
| 20260506212114 | 61 | 11 | 7.0 | 10.0 | 0.00 | 0.00 | 0.17 | 74 | 1014.9 |
| 20260506211614 | 62 | 13 | 7.0 | 9.0 | 0.00 | 0.00 | 0.17 | 75 | 1015.0 |
| 20260506211114 | 61 | 10 | 4.0 | 9.0 | 0.00 | 0.00 | 0.17 | 75 | 1015.0 |
| 20260506210615 | 61 | 11 | 3.0 | 9.0 | 0.00 | 0.00 | 0.17 | 75 | 1015.1 |
| 20260506210113 | 61 | 11 | 5.0 | 9.0 | 0.00 | 0.00 | 0.17 | 75 | 1015.1 |
| 20260506205615 | 61 | 11 | 7.0 | 12.0 | 0.00 | 0.00 | 0.17 | 74 | 1015.2 |
| 20260506205115 | 61 | 13 | 4.0 | 12.0 | 0.00 | 0.00 | 0.17 | 75 | 1015.0 |
| 20260506204614 | 61 | 11 | 9.0 | 12.0 | 0.00 | 0.00 | 0.17 | 74 | 1014.9 |
| 20260506204115 | 61 | 13 | 5.0 | 10.0 | 0.00 | 0.00 | 0.17 | 74 | 1015.1 |
| 20260506203614 | 61 | 11 | 5.0 | 10.0 | 0.00 | 0.00 | 0.17 | 75 | 1015.1 |
| 20260506203112 | 61 | 5 | 3.0 | 10.0 | 0.00 | 0.00 | 0.17 | 74 | 1014.9 |
| 20260506202613 | 61 | 11 | 7.0 | 10.0 | 0.00 | 0.00 | 0.17 | 74 | 1015.5 |
| 20260506202113 | 61 | 9 | 9.0 | 10.0 | 0.00 | 0.00 | 0.17 | 74 | 1015.3 |
| 20260506201613 | 60 | 12 | 7.0 | 10.0 | 0.00 | 0.00 | 0.17 | 75 | 1015.5 |
| 20260506201113 | 61 | 10 | 7.0 | 9.0 | 0.00 | 0.00 | 0.17 | 74 | 1015.6 |
| 20260506200612 | 61 | 12 | 5.0 | 9.0 | 0.00 | 0.00 | 0.17 | 74 | 1015.4 |
| 20260506200112 | 60 | 33 | 4.0 | 10.0 | 0.00 | 0.00 | 0.17 | 74 | 1015.6 |
| 20260506195613 | 60 | 11 | 7.0 | 10.0 | 0.00 | 0.00 | 0.17 | 74 | 1015.6 |
| 20260506195111 | 60 | 9 | 7.0 | 9.0 | 0.00 | 0.00 | 0.17 | 76 | 1015.7 |
| 20260506194617 | 60 | 12 | 4.0 | 9.0 | 0.00 | 0.00 | 0.17 | 76 | 1015.8 |
| 20260506194112 | 59 | 10 | 5.0 | 9.0 | 0.00 | 0.00 | 0.17 | 76 | 1015.9 |
| 20260506193611 | 60 | 11 | 3.0 | 9.0 | 0.00 | 0.00 | 0.17 | 76 | 1016.0 |
| 20260506193110 | 59 | 15 | 2.0 | 6.0 | 0.00 | 0.00 | 0.17 | 76 | 1016.0 |
| 20260506192610 | 59 | 32 | 3.0 | 6.0 | 0.00 | 0.00 | 0.17 | 76 | 1016.1 |
| 20260506192110 | 59 | 29 | 6.0 | 8.0 | 0.00 | 0.00 | 0.17 | 76 | 1016.5 |
| 20260506191615 | 58 | 10 | 5.0 | 8.0 | 0.00 | 0.00 | 0.17 | 76 | 1016.1 |
| 20260506191115 | 58 | 10 | 4.0 | 8.0 | 0.00 | 0.00 | 0.17 | 76 | 1016.1 |
| 20260506190609 | 58 | 360 | 3.0 | 8.0 | 0.00 | 0.00 | 0.17 | 76 | 1016.3 |
| 20260506190111 | 58 | 5 | 3.0 | 8.0 | 0.00 | 0.00 | 0.17 | 76 | 1016.4 |
| 20260506185611 | 58 | 35 | 5.0 | 9.0 | 0.00 | 0.00 | 0.17 | 77 | 1016.3 |
| 20260506185110 | 58 | 9 | 7.0 | 9.0 | 0.00 | 0.00 | 0.17 | 77 | 1016.0 |
| 20260506184610 | 58 | 11 | 5.0 | 8.0 | 0.00 | 0.00 | 0.17 | 77 | 1016.2 |
| 20260506184112 | 59 | 30 | 2.0 | 12.0 | 0.00 | 0.00 | 0.17 | 76 | 1016.2 |
| 20260506183611 | 59 | 9 | 1.0 | 14.0 | 0.00 | 0.00 | 0.17 | 77 | 1015.8 |
| 20260506183112 | 58 | 30 | 5.0 | 14.0 | 0.00 | 0.00 | 0.17 | 77 | 1015.5 |
| 20260506182613 | 58 | 29 | 10.0 | 16.0 | 0.00 | 0.00 | 0.17 | 78 | 1015.0 |
| 20260506182113 | 58 | 30 | 12.0 | 16.0 | 0.00 | 0.00 | 0.17 | 78 | 1015.2 |
| 20260506181613 | 58 | 10 | 4.0 | 16.0 | 0.00 | 0.00 | 0.17 | 78 | 1015.3 |
| 20260506181111 | 58 | 32 | 8.0 | 15.0 | 0.00 | 0.00 | 0.17 | 79 | 1015.0 |
| 20260506180611 | 57 | 5 | 5.0 | 13.0 | 0.00 | 0.00 | 0.17 | 80 | 1015.0 |
| 20260506180109 | 57 | 30 | 3.0 | 16.0 | 0.00 | 0.00 | 0.17 | 81 | 1015.5 |
| 20260506175613 | 57 | 9 | 4.0 | 16.0 | 0.00 | 0.00 | 0.17 | 81 | 1015.6 |
| 20260506175110 | 56 | 27 | 6.0 | 16.0 | 0.00 | 0.00 | 0.17 | 82 | 1015.7 |
| 20260506174612 | 56 | 11 | 9.0 | 16.0 | 0.00 | 0.00 | 0.17 | 82 | 1015.6 |
| 20260506174112 | 55 | 30 | 5.0 | 16.0 | 0.00 | 0.00 | 0.17 | 83 | 1015.8 |
| 20260506173612 | 55 | 32 | 5.0 | 16.0 | 0.00 | 0.00 | 0.17 | 84 | 1015.7 |
| 20260506173113 | 55 | 10 | 5.0 | 14.0 | 0.00 | 0.00 | 0.17 | 84 | 1015.7 |
| 20260506172622 | 55 | 5 | 4.0 | 14.0 | 0.00 | 0.00 | 0.17 | 85 | 1015.6 |
| 20260506172123 | 55 | 9 | 4.0 | 14.0 | 0.00 | 0.00 | 0.17 | 85 | 1015.8 |
| 20260506171622 | 54 | 32 | 2.0 | 16.0 | 0.00 | 0.00 | 0.17 | 86 | 1015.7 |
| 20260506171121 | 54 | 9 | 7.0 | 16.0 | 0.00 | 0.00 | 0.17 | 86 | 1015.4 |
| 20260506170621 | 54 | 360 | 10.0 | 14.0 | 0.00 | 0.00 | 0.17 | 87 | 1015.5 |
| 20260506170121 | 54 | 35 | 7.0 | 13.0 | 0.00 | 0.00 | 0.17 | 87 | 1015.6 |
| 20260506165620 | 54 | 9 | 7.0 | 13.0 | 0.00 | 0.00 | 0.17 | 88 | 1015.9 |
| 20260506165122 | 53 | 11 | 9.0 | 12.0 | 0.00 | 0.00 | 0.17 | 88 | 1016.0 |
| 20260506164623 | 53 | 11 | 5.0 | 10.0 | 0.00 | 0.00 | 0.17 | 88 | 1015.9 |
| 20260506164123 | 53 | 5 | 6.0 | 9.0 | 0.00 | 0.00 | 0.17 | 89 | 1016.1 |
| 20260506163620 | 53 | 11 | 5.0 | 11.0 | 0.00 | 0.00 | 0.17 | 88 | 1016.2 |
| 20260506163121 | 53 | 11 | 7.0 | 12.0 | 0.00 | 0.00 | 0.17 | 88 | 1016.4 |
| 20260506162620 | 53 | 12 | 11.0 | 12.0 | 0.00 | 0.00 | 0.17 | 88 | 1016.2 |
| 20260506162120 | 53 | 13 | 4.0 | 12.0 | 0.00 | 0.00 | 0.17 | 88 | 1016.1 |
| 20260506161619 | 53 | 5 | 6.0 | 11.0 | 0.00 | 0.00 | 0.17 | 89 | 1016.1 |
| 20260506161119 | 53 | 11 | 5.0 | 15.0 | 0.00 | 0.00 | 0.17 | 89 | 1015.8 |
| 20260506160621 | 53 | 11 | 11.0 | 16.0 | 0.00 | 0.00 | 0.17 | 89 | 1015.8 |
| 20260506160120 | 53 | 13 | 4.0 | 17.0 | 0.00 | 0.00 | 0.17 | 89 | 1015.4 |
| 20260506155617 | 53 | 21 | 11.0 | 17.0 | 0.00 | 0.00 | 0.17 | 89 | 1014.9 |
| 20260506155121 | 53 | 306 | 1.0 | 14.0 | 0.00 | 0.00 | 0.17 | 90 | 1015.3 |
| 20260506154620 | 53 | 316 | 9.0 | 14.0 | 0.00 | 0.00 | 0.17 | 89 | 1015.5 |
| 20260506154121 | 53 | 333 | 3.0 | 9.0 | 0.00 | 0.00 | 0.17 | 90 | 1016.0 |
| 20260506153618 | 52 | 333 | 4.0 | 10.0 | 0.00 | 0.00 | 0.17 | 89 | 1015.7 |
| 20260506153118 | 52 | 318 | 2.0 | 10.0 | 0.00 | 0.00 | 0.17 | 89 | 1016.0 |
| 20260506152618 | 52 | 13 | 5.0 | 11.0 | 0.00 | 0.00 | 0.17 | 89 | 1016.2 |
| 20260506152121 | 52 | 36 | 5.0 | 11.0 | 0.00 | 0.00 | 0.16 | 88 | 1015.9 |
| 20260506151620 | 52 | 24 | 9.0 | 15.0 | 0.00 | 0.00 | 0.16 | 87 | 1015.9 |
| 20260506151119 | 53 | 5 | 9.0 | 15.0 | 0.00 | 0.00 | 0.13 | 86 | 1016.6 |
| 20260506150618 | 53 | 336 | 10.0 | 10.0 | 0.00 | 0.00 | 0.01 | 84 | 1018.0 |
| 20260506150119 | 53 | 340 | 8.0 | 10.0 | 0.00 | 0.00 | 0.00 | 83 | 1017.7 |
| 20260506145617 | 53 | 323 | 5.0 | 10.0 | 0.00 | 0.00 | 0.00 | 83 | 1017.5 |
| 20260506145118 | 53 | 5 | 2.0 | 9.0 | 0.00 | 0.00 | 0.00 | 82 | 1017.1 |
| 20260506144616 | 53 | 327 | 6.0 | 9.0 | 0.00 | 0.00 | 0.00 | 83 | 1016.8 |
| 20260506144116 | 53 | 350 | 4.0 | 10.0 | 0.00 | 0.00 | 0.00 | 82 | 1016.9 |
| 20260506143617 | 53 | 327 | 5.0 | 14.0 | 0.00 | 0.00 | 0.00 | 83 | 1016.1 |
| 20260506143115 | 53 | 331 | 6.0 | 14.0 | 0.00 | 0.00 | 0.00 | 82 | 1015.4 |
| 20260506142617 | 53 | 42 | 9.0 | 14.0 | 0.00 | 0.00 | 0.00 | 82 | 1014.9 |
| 20260506142116 | 53 | 352 | 4.0 | 12.0 | 0.00 | 0.00 | 0.00 | 82 | 1015.4 |
| 20260506141616 | 53 | 26 | 8.0 | 12.0 | 0.00 | 0.00 | 0.00 | 82 | 1016.0 |
| 20260506141116 | 53 | 11 | 5.0 | 14.0 | 0.00 | 0.00 | 0.00 | 82 | 1016.4 |
| 20260506140617 | 53 | 351 | 4.0 | 14.0 | 0.00 | 0.00 | 0.00 | 82 | 1016.4 |
| 20260506140115 | 53 | 317 | 5.0 | 13.0 | 0.00 | 0.00 | 0.00 | 82 | 1016.2 |
| 20260506135616 | 53 | 360 | 5.0 | 13.0 | 0.00 | 0.00 | 0.00 | 82 | 1016.0 |
| 20260506135117 | 53 | 51 | 4.0 | 13.0 | 0.00 | 0.00 | 0.00 | 82 | 1015.9 |
| 20260506134618 | 53 | 51 | 7.0 | 14.0 | 0.00 | 0.00 | 0.00 | 82 | 1015.7 |
| 20260506134113 | 53 | 38 | 3.0 | 15.0 | 0.00 | 0.00 | 0.00 | 83 | 1015.5 |
| 20260506133616 | 53 | 9 | 7.0 | 15.0 | 0.00 | 0.00 | 0.00 | 83 | 1015.3 |
| 20260506133113 | 53 | 360 | 9.0 | 13.0 | 0.00 | 0.00 | 0.00 | 83 | 1015.0 |
| 20260506132613 | 53 | 37 | 4.0 | 14.0 | 0.00 | 0.00 | 0.00 | 83 | 1015.0 |
| 20260506132114 | 53 | 5 | 5.0 | 14.0 | 0.00 | 0.00 | 0.00 | 83 | 1015.3 |
| 20260506131613 | 53 | 327 | 10.0 | 14.0 | 0.00 | 0.00 | 0.00 | 83 | 1015.1 |
| 20260506131114 | 53 | 10 | 9.0 | 14.0 | 0.00 | 0.00 | 0.00 | 83 | 1015.0 |
| 20260506130614 | 52 | 13 | 4.0 | 16.0 | 0.00 | 0.00 | 0.00 | 83 | 1014.8 |
| 20260506130113 | 52 | 360 | 8.0 | 16.0 | 0.00 | 0.00 | 0.00 | 83 | 1014.8 |
| 20260506125612 | 52 | 38 | 10.0 | 17.0 | 0.00 | 0.00 | 0.00 | 83 | 1014.8 |
| 20260506125112 | 52 | 5 | 10.0 | 17.0 | 0.00 | 0.00 | 0.00 | 83 | 1014.4 |
| 20260506124612 | 53 | 341 | 5.0 | 16.0 | 0.00 | 0.00 | 0.00 | 82 | 1014.6 |
| 20260506124110 | 53 | 324 | 10.0 | 15.0 | 0.00 | 0.00 | 0.00 | 82 | 1014.5 |
| 20260506123613 | 53 | 5 | 14.0 | 15.0 | 0.00 | 0.00 | 0.00 | 81 | 1014.5 |
| 20260506123112 | 53 | 344 | 6.0 | 13.0 | 0.00 | 0.00 | 0.00 | 81 | 1014.6 |
| 20260506122612 | 53 | 17 | 11.0 | 15.0 | 0.00 | 0.00 | 0.00 | 81 | 1014.4 |
| 20260506122113 | 54 | 5 | 8.0 | 15.0 | 0.00 | 0.00 | 0.00 | 81 | 1014.3 |
| 20260506121611 | 54 | 331 | 11.0 | 16.0 | 0.00 | 0.00 | 0.00 | 80 | 1014.2 |
| 20260506121111 | 54 | 26 | 6.0 | 16.0 | 0.00 | 0.00 | 0.00 | 79 | 1014.3 |
| 20260506120611 | 54 | 22 | 10.0 | 16.0 | 0.00 | 0.00 | 0.00 | 78 | 1014.2 |
| 20260506120111 | 54 | 360 | 5.0 | 16.0 | 0.00 | 0.00 | 0.00 | 78 | 1014.2 |
| 20260506115615 | 55 | 312 | 11.0 | 16.0 | 0.00 | 0.00 | 0.00 | 77 | 1014.1 |
| 20260506115111 | 55 | 360 | 8.0 | 16.0 | 0.00 | 0.00 | 0.00 | 77 | 1014.0 |
| 20260506114613 | 55 | 336 | 5.0 | 14.0 | 0.00 | 0.00 | 0.00 | 76 | 1014.0 |
| 20260506114112 | 55 | 323 | 8.0 | 15.0 | 0.00 | 0.00 | 0.00 | 76 | 1014.0 |
| 20260506113614 | 55 | 360 | 9.0 | 15.0 | 0.00 | 0.00 | 0.00 | 76 | 1013.7 |
| 20260506113114 | 55 | 360 | 4.0 | 14.0 | 0.00 | 0.00 | 0.00 | 76 | 1013.7 |
| 20260506112614 | 55 | 313 | 9.0 | 14.0 | 0.00 | 0.00 | 0.00 | 75 | 1013.6 |
| 20260506112113 | 56 | 5 | 4.0 | 15.0 | 0.00 | 0.00 | 0.00 | 76 | 1013.7 |
| 20260506111613 | 55 | 5 | 3.0 | 17.0 | 0.00 | 0.00 | 0.00 | 76 | 1013.3 |
| 20260506111111 | 55 | 5 | 12.0 | 18.0 | 0.00 | 0.00 | 0.00 | 75 | 1013.1 |
| 20260506110610 | 56 | 22 | 10.0 | 18.0 | 0.00 | 0.00 | 0.00 | 75 | 1013.2 |
| 20260506110113 | 56 | 342 | 14.0 | 18.0 | 0.00 | 0.00 | 0.00 | 75 | 1013.2 |
| 20260506105612 | 56 | 317 | 5.0 | 17.0 | 0.00 | 0.00 | 0.00 | 75 | 1013.0 |
| 20260506105111 | 56 | 339 | 11.0 | 17.0 | 0.00 | 0.00 | 0.00 | 75 | 1012.9 |
| 20260506104611 | 56 | 329 | 6.0 | 15.0 | 0.00 | 0.00 | 0.00 | 75 | 1012.8 |
| 20260506104111 | 56 | 24 | 4.0 | 15.0 | 0.00 | 0.00 | 0.00 | 75 | 1012.9 |
| 20260506103616 | 57 | 330 | 4.0 | 15.0 | 0.00 | 0.00 | 0.00 | 75 | 1012.8 |
| 20260506103114 | 57 | 352 | 8.0 | 15.0 | 0.00 | 0.00 | 0.00 | 75 | 1012.7 |
| 20260506102615 | 57 | 326 | 13.0 | 12.0 | 0.00 | 0.00 | 0.00 | 75 | 1012.7 |
| 20260506102113 | 57 | 348 | 5.0 | 13.0 | 0.00 | 0.00 | 0.00 | 75 | 1012.5 |
| 20260506101611 | 57 | 46 | 3.0 | 13.0 | 0.00 | 0.00 | 0.00 | 75 | 1012.4 |
| 20260506101110 | 57 | 352 | 2.0 | 13.0 | 0.00 | 0.00 | 0.00 | 76 | 1012.3 |
| 20260506100611 | 57 | 15 | 2.0 | 14.0 | 0.00 | 0.00 | 0.00 | 76 | 1012.2 |
| 20260506100113 | 57 | 21 | 5.0 | 14.0 | 0.00 | 0.00 | 0.00 | 76 | 1012.3 |
| 20260506095629 | 57 | 32 | 5.0 | 13.0 | 0.00 | 0.00 | 0.00 | 75 | 1012.1 |
| 20260506095131 | 57 | 360 | 8.0 | 13.0 | 0.00 | 0.00 | 0.00 | 75 | 1012.0 |
| 20260506094631 | 57 | 28 | 6.0 | 14.0 | 0.00 | 0.00 | 0.00 | 76 | 1012.0 |
| 20260506094129 | 57 | 10 | 10.0 | 14.0 | 0.00 | 0.00 | 0.00 | 75 | 1011.9 |
| 20260506093628 | 57 | 31 | 5.0 | 13.0 | 0.00 | 0.00 | 0.00 | 75 | 1012.1 |
| 20260506093129 | 57 | 32 | 4.0 | 12.0 | 0.00 | 0.00 | 0.00 | 75 | 1012.1 |
| 20260506092627 | 58 | 34 | 3.0 | 10.0 | 0.00 | 0.00 | 0.00 | 76 | 1011.8 |
| 20260506092128 | 58 | 32 | 5.0 | 11.0 | 0.00 | 0.00 | 0.00 | 76 | 1011.8 |
| 20260506091627 | 58 | 9 | 7.0 | 13.0 | 0.00 | 0.00 | 0.00 | 76 | 1011.9 |
| 20260506091129 | 58 | 10 | 5.0 | 13.0 | 0.00 | 0.00 | 0.00 | 76 | 1011.8 |
| 20260506090630 | 58 | 9 | 5.0 | 13.0 | 0.00 | 0.00 | 0.00 | 76 | 1011.8 |
| 20260506090126 | 58 | 360 | 4.0 | 13.0 | 0.00 | 0.00 | 0.00 | 76 | 1011.9 |
| 20260506085628 | 58 | 28 | 5.0 | 11.0 | 0.00 | 0.00 | 0.00 | 76 | 1011.8 |
| 20260506085128 | 58 | 360 | 6.0 | 11.0 | 0.00 | 0.00 | 0.00 | 76 | 1011.6 |
| 20260506084627 | 58 | 5 | 9.0 | 11.0 | 0.00 | 0.00 | 0.00 | 76 | 1011.6 |
| 20260506084125 | 59 | 5 | 1.0 | 11.0 | 0.00 | 0.00 | 0.00 | 77 | 1011.6 |
| 20260506083626 | 59 | 5 | 3.0 | 11.0 | 0.00 | 0.00 | 0.00 | 76 | 1011.4 |
| 20260506083125 | 59 | 10 | 8.0 | 11.0 | 0.00 | 0.00 | 0.00 | 76 | 1011.5 |
| 20260506082624 | 59 | 11 | 4.0 | 11.0 | 0.00 | 0.00 | 0.00 | 77 | 1011.3 |
| 20260506082126 | 59 | 9 | 8.0 | 11.0 | 0.00 | 0.00 | 0.00 | 77 | 1011.4 |
| 20260506081624 | 59 | 360 | 3.0 | 10.0 | 0.00 | 0.00 | 0.00 | 77 | 1011.6 |
| 20260506081125 | 59 | 30 | 2.0 | 9.0 | 0.00 | 0.00 | 0.00 | 77 | 1011.3 |
| 20260506080626 | 59 | 360 | 5.0 | 11.0 | 0.00 | 0.00 | 0.00 | 76 | 1011.4 |
| 20260506080123 | 59 | 30 | 3.0 | 11.0 | 0.00 | 0.00 | 0.00 | 76 | 1011.5 |
| 20260506073125 | 59 | 5 | 5.0 | 10.0 | 0.00 | 0.00 | 0.00 | 78 | 1010.9 |
| 20260506072623 | 59 | 5 | 4.0 | 13.0 | 0.00 | 0.00 | 0.00 | 78 | 1010.8 |
| 20260506072121 | 59 | 9 | 5.0 | 13.0 | 0.00 | 0.00 | 0.00 | 78 | 1010.7 |
| 20260506071622 | 59 | 10 | 7.0 | 12.0 | 0.00 | 0.00 | 0.00 | 78 | 1011.0 |
| 20260506071120 | 59 | 9 | 4.0 | 10.0 | 0.00 | 0.00 | 0.00 | 78 | 1010.9 |
| 20260506070622 | 59 | 9 | 5.0 | 10.0 | 0.00 | 0.00 | 0.00 | 78 | 1010.8 |
| 20260506070122 | 59 | 11 | 7.0 | 10.0 | 0.00 | 0.00 | 0.00 | 78 | 1011.1 |
| 20260506062121 | 60 | 10 | 4.0 | 12.0 | 0.00 | 0.00 | 0.00 | 78 | 1011.1 |
| 20260506061621 | 60 | 5 | 8.0 | 14.0 | 0.00 | 0.00 | 0.00 | 78 | 1010.9 |
| 20260506061119 | 60 | 5 | 5.0 | 14.0 | 0.00 | 0.00 | 0.00 | 78 | 1011.0 |
| 20260506060619 | 60 | 9 | 7.0 | 14.0 | 0.00 | 0.00 | 0.00 | 77 | 1011.1 |
| 20260506060121 | 60 | 360 | 2.0 | 12.0 | 0.00 | 0.00 | 0.00 | 78 | 1011.1 |
| 20260506051119 | 62 | 26 | 10.0 | 14.0 | 0.00 | 0.00 | 0.00 | 78 | 1011.1 |
| 20260506050619 | 62 | 9 | 4.0 | 15.0 | 0.00 | 0.00 | 0.00 | 78 | 1011.2 |
| 20260506050121 | 62 | 26 | 6.0 | 15.0 | 0.00 | 0.00 | 0.00 | 78 | 1010.9 |
| 20260506045120 | 62 | 5 | 3.0 | 11.0 | 0.00 | 0.00 | 0.00 | 78 | 1010.8 |
| 20260506044617 | 62 | 9 | 2.0 | 12.0 | 0.00 | 0.00 | 0.00 | 78 | 1010.8 |
| 20260506044118 | 63 | 9 | 5.0 | 13.0 | 0.00 | 0.00 | 0.00 | 78 | 1010.8 |
| 20260506043618 | 63 | 5 | 3.0 | 13.0 | 0.00 | 0.00 | 0.00 | 78 | 1010.9 |
| 20260506043116 | 63 | 360 | 3.0 | 16.0 | 0.00 | 0.00 | 0.00 | 78 | 1010.8 |
| 20260506042618 | 63 | 26 | 8.0 | 16.0 | 0.00 | 0.00 | 0.00 | 77 | 1010.8 |
| 20260506042116 | 63 | 24 | 10.0 | 15.0 | 0.00 | 0.00 | 0.00 | 77 | 1010.8 |
| 20260506041616 | 64 | 24 | 5.0 | 15.0 | 0.00 | 0.00 | 0.00 | 76 | 1010.9 |
| 20260506041117 | 64 | 5 | 4.0 | 20.0 | 0.00 | 0.00 | 0.00 | 77 | 1010.8 |
| 20260506040616 | 64 | 25 | 6.0 | 20.0 | 0.00 | 0.00 | 0.00 | 77 | 1010.7 |
| 20260506040116 | 64 | 9 | 7.0 | 16.0 | 0.00 | 0.00 | 0.00 | 77 | 1010.8 |
| 20260506035617 | 64 | 24 | 5.0 | 16.0 | 0.00 | 0.00 | 0.00 | 76 | 1010.7 |
| 20260506035117 | 65 | 360 | 4.0 | 16.0 | 0.00 | 0.00 | 0.00 | 76 | 1010.6 |
| 20260506034615 | 65 | 5 | 6.0 | 16.0 | 0.00 | 0.00 | 0.00 | 76 | 1010.2 |
| 20260506034114 | 65 | 9 | 10.0 | 14.0 | 0.00 | 0.00 | 0.00 | 76 | 1010.2 |
| 20260506033615 | 65 | 10 | 4.0 | 14.0 | 0.00 | 0.00 | 0.00 | 76 | 1010.0 |
| 20260506033114 | 65 | 9 | 5.0 | 15.0 | 0.00 | 0.00 | 0.00 | 76 | 1009.8 |
| 20260506032617 | 66 | 5 | 6.0 | 16.0 | 0.00 | 0.00 | 0.00 | 75 | 1009.8 |
| 20260506032115 | 66 | 5 | 11.0 | 16.0 | 0.00 | 0.00 | 0.00 | 75 | 1009.8 |
| 20260506031615 | 67 | 33 | 9.0 | 17.0 | 0.00 | 0.00 | 0.00 | 75 | 1009.7 |
| 20260506031115 | 67 | 10 | 7.0 | 17.0 | 0.00 | 0.00 | 0.00 | 75 | 1009.6 |
| 20260506030614 | 67 | 32 | 10.0 | 17.0 | 0.00 | 0.00 | 0.00 | 75 | 1009.6 |
| 20260506030115 | 68 | 29 | 5.0 | 17.0 | 0.00 | 0.00 | 0.00 | 75 | 1009.6 |
| 20260506025613 | 68 | 35 | 11.0 | 14.0 | 0.00 | 0.00 | 0.00 | 74 | 1009.5 |
| 20260506025115 | 68 | 11 | 7.0 | 14.0 | 0.00 | 0.00 | 0.00 | 74 | 1009.3 |
| 20260506024615 | 68 | 30 | 5.0 | 14.0 | 0.00 | 0.00 | 0.00 | 73 | 1009.1 |
| 20260506024115 | 68 | 28 | 6.0 | 14.0 | 0.00 | 0.00 | 0.00 | 73 | 1009.0 |
| 20260506023613 | 69 | 9 | 4.0 | 14.0 | 0.00 | 0.00 | 0.00 | 73 | 1008.8 |
| 20260506023113 | 69 | 9 | 5.0 | 11.0 | 0.00 | 0.00 | 0.00 | 73 | 1008.8 |
| 20260506022614 | 69 | 32 | 9.0 | 11.0 | 0.00 | 0.00 | 0.00 | 72 | 1008.8 |
| 20260506022114 | 69 | 360 | 3.0 | 12.0 | 0.00 | 0.00 | 0.00 | 72 | 1008.7 |
| 20260506021614 | 69 | 27 | 2.0 | 12.0 | 0.00 | 0.00 | 0.00 | 72 | 1008.4 |
| 20260506021112 | 69 | 10 | 8.0 | 13.0 | 0.00 | 0.00 | 0.00 | 71 | 1008.3 |
| 20260506020614 | 69 | 29 | 6.0 | 13.0 | 0.00 | 0.00 | 0.00 | 71 | 1008.4 |
| 20260506020111 | 69 | 26 | 12.0 | 13.0 | 0.00 | 0.00 | 0.00 | 71 | 1008.3 |
| 20260506015610 | 69 | 30 | 8.0 | 12.0 | 0.00 | 0.00 | 0.00 | 72 | 1008.1 |
| 20260506015113 | 70 | 5 | 5.0 | 12.0 | 0.00 | 0.00 | 0.00 | 72 | 1007.9 |
| 20260506014614 | 70 | 25 | 3.0 | 12.0 | 0.00 | 0.00 | 0.00 | 72 | 1007.6 |
| 20260506014113 | 70 | 9 | 10.0 | 11.0 | 0.00 | 0.00 | 0.00 | 72 | 1007.6 |
| 20260506013613 | 71 | 9 | 4.0 | 11.0 | 0.00 | 0.00 | 0.00 | 71 | 1007.8 |
| 20260506013114 | 71 | 9 | 7.0 | 11.0 | 0.00 | 0.00 | 0.00 | 71 | 1007.7 |
| 20260506012613 | 71 | 27 | 3.0 | 11.0 | 0.00 | 0.00 | 0.00 | 71 | 1007.4 |
| 20260506012111 | 71 | 33 | 4.0 | 11.0 | 0.00 | 0.00 | 0.00 | 71 | 1007.4 |
| 20260506011610 | 72 | 5 | 5.0 | 11.0 | 0.00 | 0.00 | 0.00 | 71 | 1007.2 |
| 20260506011111 | 72 | 10 | 2.0 | 11.0 | 0.00 | 0.00 | 0.00 | 70 | 1007.3 |
| 20260506010612 | 72 | 9 | 10.0 | 11.0 | 0.00 | 0.00 | 0.00 | 70 | 1007.2 |
| 20260506010111 | 72 | 9 | 3.0 | 12.0 | 0.00 | 0.00 | 0.00 | 69 | 1007.2 |
| 20260506005611 | 73 | 360 | 2.0 | 12.0 | 0.00 | 0.00 | 0.00 | 69 | 1007.2 |
| 20260506005115 | 73 | 9 | 5.0 | 12.0 | 0.00 | 0.00 | 0.00 | 69 | 1007.1 |
| 20260506004610 | 73 | 13 | 3.0 | 13.0 | 0.00 | 0.00 | 0.00 | 70 | 1006.7 |
| 20260506004112 | 73 | 360 | 5.0 | 15.0 | 0.00 | 0.00 | 0.00 | 69 | 1006.9 |